Other Public Products
Issued by NWS Grand Forks, ND

Home | Current Version | Previous Version | Text Only | Print | Product List | Glossary On
Versions: 1 2 3 4 5 6 7 8 9 10 11 12 13 14 15 16 17 18 19 20 21 22 23 24 25 26 27 28 29 30 31 32 33 34 35 36 37 38 39 40 41 42 43 44 45 46 47 48 49 50
000
FPUS83 KFGF 271731
OPUFGF
PRAIRIE TO PINES WEATHER ROUNDUP
NATIONAL WEATHER SERVICE EASTERN NORTH DAKOTA/GRAND FORKS ND
1200 PM CDT WED JUL 27 2016

 **SATELLITE DATA USED TO AUGMENT SKY COVER AT AUTOMATED STATIONS**
 *****  WEATHER ACROSS EASTERN NORTH DAKOTA  *****

CITY           SKY/WX    TMP DP  RH WIND       PRES   REMARKS
GRAND FORKS    MOSUNNY   73  59  61 N15       30.05F
GRAND FORKS AF SUNNY     73  60  62 N15       30.07S
GRAND CITY NWS   N/A     73 N/A N/A N16         N/A
BUXTON           N/A     75  63  64 NW8         N/A
DEVILS LAKE    CLOUDY    69  57  65 N13G18    30.14R
FARGO          SUNNY     76  58  53 N14       30.03S
WAHPETON ARPT  SUNNY     73  61  64 N12G17    30.04R
$$

 *****  WEATHER ACROSS CENTRAL AND WESTERN NORTH DAKOTA  *****

CITY           SKY/WX    TMP DP  RH WIND       PRES   REMARKS
JAMESTOWN      SUNNY     74  61  63 N12       30.11R
BISMARCK       PTSUNNY   74  64  71 E7        30.12R
MINOT          MOSUNNY   76  59  55 NE6       30.14R
MINOT AFB      MOSUNNY   72  59  64 E9        30.14R
GARRISON         N/A     73  63  70 E9        30.13S
WILLISTON      CLOUDY    72  58  61 CALM      30.13S
DICKINSON      CLOUDY    67  61  81 SE7       30.13S
HETTINGER      CLOUDY    74  62  66 E7        30.14F
$$

 *****  OTHER OBSERVATIONS NORTHEAST NORTH DAKOTA  *****

CITY           SKY/WX    TMP DP  RH WIND       PRES   REMARKS
WALHALLA       FAIR      70  66  88 N10       30.12S
LANGDON        FAIR      72  57  60 NE10G18   30.14R
CAVALIER       FAIR      72  57  60 N16       30.10S
GRAFTON        FAIR      73  59  60 N18       30.09S
CANDO          PTSUNNY   72  59  64 NE12      30.16R
FORT TOTTEN      N/A     72  60  67 N5        29.95S
ROLLA            N/A     66  55  68 N7        30.18R
RUGBY          NOT AVBL
 ***** THE ABOVE OBSERVATIONS ARE NON NWS ARE NOT QUALITY
        CONTROLLED AND MAY MIS-REPORT RAIN FOR SNOW...
$$

 *****  OTHER OBSERVATIONS SOUTHEAST NORTH DAKOTA *****

CITY           SKY/WX    TMP DP  RH WIND       PRES   REMARKS
COOPERSTOWN    NOT AVBL
VALLEY CITY    FAIR      73  63  68 N9        30.12R
OAKES            N/A    N/A N/A N/A MISG        N/A
GWINNER        FAIR      75  61  60 N14G20    30.08R
SHEYENNE NWR     N/A     75  58  54 N12       29.95
BUFFALO          N/A     74  53  48 N12         N/A
WYNDMERE         N/A     75  61  60 N12         N/A
 ***** THE ABOVE OBSERVATIONS ARE NON NWS ARE NOT QUALITY
       CONTROLLED AND MAY MIS-REPORT RAIN FOR SNOW...
$$

  *****  WEATHER ACROSS NORTHERN MINNESOTA  *****

CITY           SKY/WX    TMP DP  RH WIND       PRES   REMARKS
FLAG ISLAND    SUNNY     70  55  60 N16       30.08R
WARROAD        MOSUNNY   72  63  73 NE12      30.07S
ROSEAU         SUNNY     73  64  73 NE12      30.06S
HALLOCK        SUNNY     73  59  60 N16G23    30.06F
THF RVR FALLS  SUNNY     72  55  55 N12       30.05S
HALSTAD          N/A     76  61  58 N14         N/A
FOSSTON        SUNNY     73  59  60 N8        30.04R
BAUDETTE       PTSUNNY   75  60  59 E8        30.05R
WASKISH        SUNNY     75  61  60 E3        30.04R
CROOKSTON      SUNNY     72  61  68 N14       30.05S
$$
  *****  WEATHER ACROSS CENTRAL AND WEST MINNESOTA  *****

CITY           SKY/WX    TMP DP  RH WIND       PRES   REMARKS
BEMIDJI        PTSUNNY   70  61  73 N7        30.02S
PARK RAPIDS    CLOUDY    70  62  76 NE5       30.03S
WADENA         NOT AVBL
DETROIT LAKES  SUNNY     72  63  73 N9G17     30.04R
MOORHEAD       SUNNY     73  61  64 N10       30.04R
FERGUS FALLS   MOSUNNY   75  63  64 N12       30.02S
ELBOW LAKE     PTSUNNY   72  65  80 N7        30.02R
MORRIS MN      CLOUDY    75  66  73 N7        30.00R
STAPLES        CLOUDY    66  63  88 N5        30.02R
WHEATON        MOSUNNY   77  68  73 NW8       30.04R
$$
  *****  WEATHER ELSEWHERE ACROSS MINNESOTA  *****

CITY           SKY/WX    TMP DP  RH WIND       PRES   REMARKS
DULUTH         CLOUDY    66  56  70 E9        30.04R
INTRNTL FALLS  CLOUDY    71  59  65 E6        30.06R
ELY            CLOUDY    66  61  82 E3        30.05S
CLOQUET        RAIN      63  55  77 E10       30.03S
BRAINERD       LGT RAIN  66  64  93 N7        30.01F FOG
HIBBING        LGT RAIN  62  60  93 SE5       30.04R
ALEXANDRIA     CLOUDY    72  64  76 E3        30.03R
SAINT CLOUD    LGT RAIN  70  69  97 N7        29.97S
MINNEAPOLIS    CLOUDY    80  68  66 SE6       29.95S
$$

  *****  WEATHER ACROSS SOUTH DAKOTA  *****

CITY           SKY/WX    TMP DP  RH WIND       PRES   REMARKS
SIOUX FALLS    PTSUNNY   82  69  64 W9        30.02R
BROOKINGS      PTSUNNY   74  65  73 N12       30.03R
WATERTOWN      MOSUNNY   78  64  61 N10       30.04S
HURON          MOSUNNY   78  65  63 N15       30.04R
SISSETON         N/A     75  64  68 N12       30.03R
ABERDEEN       MOSUNNY   75  65  70 N12       30.06R
MITCHELL       MOSUNNY   81  68  64 N12       30.03R
PIERRE         SUNNY     82  63  52 NE16G24   30.04S
MOBRIDGE       MOSUNNY   77  62  59 N8G16     30.07S
RAPID CITY     CLOUDY    76  62  62 E9        30.10R
$$

  *****  SOME WEATHER IN NEARBY STATES *****

CITY           SKY/WX    TMP DP  RH WIND       PRES   REMARKS
GLASGOW MT     PTSUNNY   68  61  78 VRB5      30.14S
GREAT FALLS MT SUNNY     72  53  51 N5        30.19F
CHEYENNE WY    SUNNY     74  53  48 NE8       30.27S
SCOTTSBLUFF NE SUNNY     75  60  59 VRB7      30.16S
OMAHA NE       MOSUNNY   85  67  54 SW10      29.98S
DES MOINES IA  CLOUDY    80  69  69 S6        30.01R
DAVENPORT IA   PTSUNNY   82  68  62 CALM      30.03S
CHICAGO IL     MOSUNNY   84  63  49 W5        30.02R
EAU CLAIRE WI  CLOUDY    80  69  69 E6        29.98F
LA CROSSE WI   CLOUDY    84  66  54 SE5       29.98F
$$

  *****  SOME NATIONAL WEATHER *****

CITY           SKY/WX    TMP DP  RH WIND       PRES   REMARKS
LA GUARDIA NY  MOSUNNY   89  61  38 VRB5      29.94S
RALEIGH NC     PTSUNNY   93  75  55 VRB3      29.99F HX 104
ATLANTA GA     PTSUNNY   86  71  60 W6        30.10S HX  91
NEW ORLEANS LA LGT RAIN  81  76  84 W14       30.08R
OKLAHOMA CITY  MOSUNNY   91  74  57 CALM      30.01S HX 100
ALBUQUERQUE NM MOSUNNY   81  57  43 W7        30.25S
SALT LAKE CITY SUNNY     91  33  12 CALM      30.13S
LOS ANGELES CA MOSUNNY   76  65  68 W8        29.93S
BOISE ID       SUNNY     86  43  22 SW8       30.06S
SEATTLE WA     MOSUNNY   68  60  75 W6        30.15F
$$

*** WEATHER ACROSS MANITOBA...SASKATCHEWAN AND ONTARIO ***
                ***ONTARIO***

CITY           SKY/WX    TMP DP  RH WIND       PRES   REMARKS
GERALDTON      PTSUNNY   66  50  55 NW10      30.03S
THUNDER BAY    PTSUNNY   73  57  56 E5        30.04S
SIOUX LOOKOUT  PTSUNNY   66  52  59 NE6       30.11S
TORONTO        MOSUNNY   90  61  37 W17       29.92F
BIG TROUT LK   NOT AVBL
PICKLE LAKE    PTSUNNY   64  48  55 VRB5      30.10F
DRYDEN         PTSUNNY   66  55  68 E9        30.11R
KENORA         PTSUNNY   68  55  64 NE10      30.10S
$$
                *** MANITOBA***

CITY           SKY/WX    TMP DP  RH WIND       PRES   REMARKS
BRANDON        PTSUNNY   68  55  64 NE10      30.17R
DAUPHIN        CLOUDY    68  57  68 NE5       30.19R
ISLAND LAKE    PTSUNNY   63  48  59 N5        30.17F
PILOT MOUND      N/A     68  54  60 NE12G17     N/A
THE PAS        CLOUDY    72  50  46 S6        30.16F
THOMPSON       MOSUNNY   66  48  52 VRB2      30.16S
WINNIPEG       PTSUNNY   70  55  60 N14       30.13R
LYNN LAKE      CLOUDY    70  48  46 MISG      30.09F
CHURCHILL      MOSUNNY   61  50  67 N6        30.12F
GILLAM         MOSUNNY   63  46  55 NW6       30.15F
$$
                ***SASKATCHEWAN***

CITY           SKY/WX    TMP DP  RH WIND       PRES   REMARKS
ESTEVAN        MOSUNNY   72  59  64 E10       30.15R
KINDERSLEY     MOSUNNY   72  59  64 SE9       30.18R
LLOYDMINSTER   PTSUNNY   70  61  73 S7        30.15S
PRINCE ALBERT  MOSUNNY   73  57  56 W3        30.16S
REGINA         PTSUNNY   72  57  60 NW2       30.16F
YORKTON        SUNNY     68  52  56 NE7       30.19R  C1F1C2F2C3F3C4F4C5F5C6F6C7F7C8F8C9F9CaFaCbFbCcFcCdFdCe!



USA.gov is the U.S. government's official web portal to all federal, state and local government web resources and services.